Regional Weather Roundup
Issued by NWS

Home | Current Version | Previous Version | Graphics & Text | Print | Product List | Glossary On
Versions: 1 2 3 4 5 6 7 8 9 10 11 12 13 14 15 16 17 18 19 20 21 22 23 24 25 26 27 28 29 30 31 32 33 34 35 36 37 38 39 40 41 42 43 44 45 46 47 48 49 50
000
ASUS43 KMKX 300407
RWRWI

WISCONSIN REGIONAL WEATHER ROUNDUP
NATIONAL WEATHER SERVICE MILWAUKEE/SULLIVAN WI
1100 PM CDT FRI MAY 29 2015

NOTE: "FAIR" INDICATES FEW OR NO CLOUDS BELOW 12,000 FEET WITH NO
SIGNIFICANT WEATHER AND/OR OBSTRUCTIONS TO VISIBILITY.

WIZ001-002-006>008-014>016-023>028-300500-
NORTHWEST WISCONSIN

CITY           SKY/WX    TMP DP  RH WIND       PRES   REMARKS
SUPERIOR ARPT  CLOUDY    52  43  71 N5        30.09R
ASHLAND        CLOUDY    53  47  79 N13       30.04R
HAYWARD        CLOUDY    51  48  89 N14G22    30.05R
SIREN          CLOUDY    52  49  87 N9G17     30.06R
CUMBERLAND     DRIZZLE   52  50  93 N13       30.03R
RICE LAKE      CLOUDY    55  52  88 N10       30.03R
CHETEK         RAIN      57  56  96 N8        30.00R
LADYSMITH      DRIZZLE   58  55  92 N8        30.01R
EAU CLAIRE     LGT RAIN  61  57  87 N9        29.95R
MENOMONIE      DRIZZLE   59  59  99 N13       29.98R
NEW RICHMOND   DRIZZLE   54  52  95 N16       30.03R
OSCEOLA        LGT RAIN  54  54 100 N6G17     30.07R
$$

WIZ003>005-009-010-017-018-300500-
NORTH CENTRAL WISCONSIN

CITY           SKY/WX    TMP DP  RH WIND       PRES   REMARKS
MANITOWISH WTR DRIZZLE   55  55 100 N6        30.00R
ARBOR VITAE    LGT RAIN  57  55  94 N8        29.98S
WOODRUFF       LGT RAIN  57  55  94 N8        29.98S
RHINELANDER    LGT RAIN  57  54  89 N5        29.97R
EAGLE RIVER    LGT RAIN  55  55 100 N8G16     29.97R
LAND O LAKES   RAIN      55  54  96 N8        29.99R
PHILLIPS       DRIZZLE   55  54  95 N8        29.99R
TOMAHAWK       RAIN      57  56  94 N3        29.97R
MEDFORD        RAIN      58  57  95 N12       29.96R
MERRILL        LGT RAIN  61  61 100 CALM      29.95S
$$

WIZ029-030-035-036-043>047-300500-
CENTRAL WISCONSIN

CITY           SKY/WX    TMP DP  RH WIND       PRES   REMARKS
WAUSAU         LGT RAIN  62  60  93 N5        29.91F
MOSINEE        LGT RAIN  61  61 100 N7        29.93F
MARSHFIELD     LGT RAIN  63  59  87 NE8       29.92S
STEVENS POINT  RAIN      63  63  98 N8        29.92F
WAUPACA        LGT RAIN  67  67  97 CALM      29.92S
WAUTOMA        NOT AVBL
WISC RAPIDS    CLOUDY    66  63  90 NE3       29.91F
CAMP DOUGLAS   CLOUDY    63  63 100 CALM      29.91S FOG
$$

WIZ011>013-019>022-031-037>040-048>050-300500-
NORTHEAST WISCONSIN

CITY           SKY/WX    TMP DP  RH WIND       PRES   REMARKS
ANTIGO         LGT RAIN  60  59  98 N6        29.94S
SHAWANO        DRIZZLE   65  64  94 CALM      29.91S
OCONTO         CLOUDY    63  63 100 W6        29.89S
STURGEON BAY   CLOUDY    64  61  88 NW3       29.90S
GREEN BAY      LGT RAIN  66  63  90 NW5       29.89F
MANITOWOC      LGT RAIN  61  59  94 CALM      29.89S
APPLETON       RAIN      64  64 100 VRB3      29.93R
CLINTONVILLE   LGT RAIN  64  63  94 CALM      29.91R
OSHKOSH        LGT RAIN  65  63  93 W5        29.92R
$$

WIZ032>034-041-042-053>061-300500-
SOUTHWEST WISCONSIN

CITY           SKY/WX    TMP DP  RH WIND       PRES   REMARKS
LA CROSSE      CLOUDY    67  64  90 CALM      29.90S
SPARTA         LGT RAIN  64  63  96 CALM      29.92S
VIROQUA        CLOUDY    64  64 100 CALM      29.92S
BOSCOBEL       CLOUDY    68  65  90 CALM      29.90F
PRAIRIE DU CHI DRIZZLE   67  64  90 CALM      29.89F
PLATTEVILLE    CLOUDY    69  67  93 SW6       29.93S
$$

WIZ056-057-062-063-064-067-068-300500-
SOUTH CENTRAL WISCONSIN

CITY           SKY/WX    TMP DP  RH WIND       PRES   REMARKS
REEDSBURG      RAIN      64  64  99 CALM      29.92R
BARABOO/DELLS  RAIN      64  63  94 CALM      29.92S
LONE ROCK      LGT RAIN  67  65  93 CALM      29.91S FOG
MINERAL POINT  LGT RAIN  72  66  83 SW6       29.92S
MADISON        LGT RAIN  68  64  87 SW3       29.90S
MIDDLETON      CLOUDY    71  68  90 SW7       29.91S
WATERTOWN      CLOUDY   N/A N/A N/A SW5       29.90S
MONROE         CLOUDY    70  66  88 SW10      29.93R
JANESVILLE     CLOUDY    70  68  94 SW6       29.92R
$$

WIZ051-052-058>065-066-070>072-300500-
SOUTHEAST WISCONSIN

CITY           SKY/WX    TMP DP  RH WIND       PRES   REMARKS
MILWAUKEE      MOCLDY    71  65  81 SW9       29.90S
WAUKESHA       CLOUDY    68  64  88 S7        29.92S
MILWAUKEE/TIMM MOCLDY    70  64  83 SW6       29.90F
RACINE         CLOUDY    70  65  84 SW6       29.92S
BURLINGTON     MOCLDY    67  63  87 SW5       29.92S
KENOSHA        CLOUDY    70  65  84 SW6       29.92R
FOND DU LAC    LGT RAIN  66  63  90 NW9       29.93R
SHEBOYGAN      CLOUDY    67  66  97 NW6       29.89R
WEST BEND      CLOUDY    68  64  88 SW3       29.89S
JUNEAU         CLOUDY    68  66  93 SW3       29.91R
$$

LSZ147-162-300500-
LAKE SUPERIOR

STATION/POSITION TIME  TEMP    WIND        PRES    WAVE
                       AIR SEA DIR/SP/G            HT/PER
                 (UTC) (F)     (DEG/KT/KT) (MB)    (FT/S)
W MID LAKE BUOY  0250   43 37  320/ 10/ 12   N/A     0
DEVILS ISLAND    0300   49     330/ 19/ 20   N/A
PORT WING        0340   45     310/  6/  8   N/A
SAXON HARBOR     0300   53     340/  2/  6   N/A
$$

LMZ867-665-643>646-300500-
LAKE MICHIGAN

STATION/POSITION TIME  TEMP    WIND        PRES    WAVE
                       AIR SEA DIR/SP/G            HT/PER
                 (UTC) (F)     (DEG/KT/KT) (MB)    (FT/S)
CHAMBERS ISLAND  0300   58      20/  6/  8   N/A
N MID LAKE BUOY  0250   47 37  200/ 10/ 12   N/A     1/ 4
NORTHPORT PIER   0300   60     310/  4/  7   N/A
SISTER BAY       0303   63      40/  4/  8   N/A
ALGOMA LAKESHORE 0308          330/  3/  5   N/A
KEWAUNEE LAKESHO 0300   61     330/  6/  8   N/A
SHEBOYGAN LAKESH 0300   57     190/  6/  7   N/A
PORT WASHINGTON  0340   59      CALM  /  1   N/A
ATWATER BUOY     0300   56     180/  8/ 10   N/A
MILWAUKEE LAKESH 0300   56        CALM       N/A
S MID LAKE BUOY  0250   47 38  200/  8/  8   N/A     0
KENOSHA   LAKESH 0300   73     220/  4/  5   N/A
$$

TC  - TEMPERATURE IN CELSIUS
VSB - VISIBILITY IN STATUTE MILES
WCI - WIND CHILL INDEX
HX  - HEAT INDEX



USA.gov is the U.S. government's official web portal to all federal, state and local government web resources and services.